Hourly Data Report for October 03, 2017

All times are specified in Local Standard Time (LST). Add 1 hour to adjust for Daylight Saving Time where and when it is observed.

ESKASONI FIRST NATION AUTOMATIC WEATHER STATION
NOVA SCOTIA

45°55'14.000" N
60°38'49.000" W
28.00 m
8201780
71175
AEI

Download Data

Hourly Data (October 2017)
Hourly Data Report for October 3, 2017
Temp Definition
°C
Dew Point Temp Definition
°C
Rel Hum Definition
%
Wind Dir Definition
10's deg

Wind Spd Definition
km/h
Visibility Definition
km
Stn Press Definition
kPa
Hmdx Definition


Wind Chill Definition


Weather Definition


TIME
00:00 8.4 3.7 72 35 8   102.60     LegendNANA
01:00 8.3 3.8 73 34 11   102.65     LegendNANA
02:00 7.9 4.3 78 33 8   102.72     LegendNANA
03:00 7.4 3.7 77 34 12   102.78     LegendNANA
04:00 6.9 3.9 81 34 12   102.83     LegendNANA
05:00 7.3 3.7 78 33 14   102.89     LegendNANA
06:00 6.3 3.4 82 34 7   102.98     LegendNANA
07:00 7.9 2.9 71 35 6   103.04     LegendNANA
08:00 9.8 2.4 60 35 10   103.06     LegendNANA
09:00 11.3 1.6 51 35 10   103.07     LegendNANA
10:00 12.4 1.8 48 35 11   103.06     LegendNANA
11:00 13.1 2.2 48 1 7   103.02     LegendNANA
12:00 14.0 2.5 46 31 10   103.00     LegendNANA
13:00 14.5 2.4 44 32 15   102.93     LegendNANA
14:00 14.1 2.5 45 31 16   102.93     LegendNANA
15:00 12.7 3.0 52 32 16   102.89     LegendNANA
16:00 11.9 3.2 55 32 14   102.81     LegendNANA
17:00 10.2 3.9 65 30 11   102.80     LegendNANA
18:00 9.5 4.4 71 21 5   102.81     LegendNANA
19:00 8.2 3.8 74 30 4   102.86     LegendNANA
20:00 6.3 4.0 85 32 5   102.85     LegendNANA
21:00 6.5 4.7 88 27 5   102.75     LegendNANA
22:00 6.3 4.2 87 30 6   102.68     LegendNANA
23:00 6.9 4.6 85 28 8   102.59     LegendNANA

Notes on Data Quality.

Legend

  • E = Estimated
  • M = Missing
  • NA = Not Available
  • ‡ = Partner data that is not subject to review by the National Climate Archives
Date modified: